Date String (YYYY-MM-DD hh:mm:ss) UTC,Instrument flags,Ambient pressure (hPa),Sample flow (lpm),Bypass flow (lpm),Sample temperature (°C),Ambient temperature (°C),ASC tube jacket temperature (°C),LED temperature (°C),Box temperature (°C),Sample RH (%),Span deviation,Mass concentration (μg/m³),Mass concentration (μg/m³),Mass concentration (μg/m³)
DateTimeUTC,F1_M11,P_M11,Q1_M11,Q2_M11,T1_M11,T2_M11,T3_M11,T4_M11,T5_M11,U1_M11,ZSPAN_M11,X0_M11,X2_M11,X1_M11
2022-01-02 21:00:00,,0827.9,4.99,0.00,28.4,27.7,00.0,37.2,30.2,08.4,0000.0,0000.94,0000.08,0000.01
2022-01-02 21:01:00,,0828.0,5.00,0.00,28.4,27.7,00.0,37.2,30.2,08.3,0000.0,0000.94,0000.08,0000.01
2022-01-02 21:02:00,,0827.9,5.00,0.00,28.4,27.7,00.0,37.3,30.2,08.4,0000.0,0001.90,0000.08,0000.01
2022-01-02 21:03:00,,0827.9,5.01,0.00,28.4,27.7,00.0,37.3,30.2,08.4,0000.0,0002.55,0000.08,0000.01
2022-01-02 21:04:00,,0828.0,5.00,0.00,28.4,27.8,00.0,37.3,30.2,08.4,0000.0,0002.55,0000.08,0000.01
2022-01-02 21:05:00,,0828.0,4.98,0.00,28.5,27.8,00.0,37.3,30.3,08.2,0000.0,0002.55,0000.08,0000.00
2022-01-02 21:06:00,,0827.9,5.01,0.00,28.5,27.8,00.0,37.3,30.3,08.2,0000.0,0002.55,0000.07,0000.00
2022-01-02 21:07:00,,0827.9,5.00,0.00,28.5,27.8,00.0,37.3,30.3,08.3,0000.0,0002.54,0000.07,0000.00
2022-01-02 21:08:00,,0827.9,5.00,0.00,28.5,27.9,00.0,37.4,30.3,08.5,0000.0,0002.13,0000.05,0000.00
2022-01-02 21:09:00,,0828.0,5.00,0.00,28.5,27.9,00.0,37.4,30.3,08.6,0000.0,0001.71,0000.03,0000.00
2022-01-02 21:10:00,,0828.0,4.99,0.00,28.5,27.9,00.0,37.4,30.3,08.5,0000.0,0001.73,0000.03,0000.00
2022-01-02 21:11:00,,0828.0,5.01,0.00,28.5,27.9,00.0,37.4,30.3,08.4,0000.0,0002.49,0000.04,0000.00
2022-01-02 21:12:00,,0828.0,5.00,0.00,28.5,27.9,00.0,37.4,30.3,08.3,0000.0,0002.58,0000.07,0000.01
2022-01-02 21:13:00,,0828.0,5.00,0.00,28.6,27.9,00.0,37.4,30.3,08.3,0000.0,0001.74,0000.08,0000.01
2022-01-02 21:14:00,,0827.9,5.00,0.00,28.6,27.9,00.0,37.4,30.4,07.9,0000.0,0001.79,0000.09,0000.01
2022-01-02 21:15:00,,0828.0,5.00,0.00,28.6,28.0,00.0,37.5,30.4,07.6,0000.0,0001.82,0000.10,0000.01
2022-01-02 21:16:00,,0828.0,5.00,0.00,28.6,27.9,00.0,37.5,30.4,07.4,0000.0,0001.84,0000.11,0000.01
2022-01-02 21:17:00,,0828.0,5.01,0.00,28.6,27.9,00.0,37.5,30.4,07.4,0000.0,0001.83,0000.10,0000.01
2022-01-02 21:18:00,,0828.0,4.99,0.00,28.6,27.9,00.0,37.5,30.4,07.2,0000.0,0001.82,0000.10,0000.01
2022-01-02 21:19:00,,0828.0,4.99,0.00,28.6,27.9,00.0,37.5,30.4,07.3,0000.0,0001.78,0000.09,0000.01
2022-01-02 21:20:00,,0827.9,5.00,0.00,28.6,28.0,00.0,37.5,30.4,07.4,0000.0,0001.82,0000.11,0000.01
2022-01-02 21:21:00,,0828.0,5.01,0.00,28.7,28.0,00.0,37.5,30.4,07.5,0000.0,0001.79,0000.12,0000.01
2022-01-02 21:22:00,,0828.0,5.01,0.00,28.7,28.0,00.0,37.6,30.4,07.5,0000.0,0001.09,0000.12,0000.01
2022-01-02 21:23:00,,0828.0,5.00,0.00,28.7,28.0,00.0,37.6,30.5,07.6,0000.0,0001.01,0000.09,0000.01
2022-01-02 21:24:00,,0828.0,4.99,0.00,28.7,28.0,00.0,37.6,30.5,07.6,0000.0,0000.73,0000.08,0000.01
2022-01-02 21:25:00,,0828.1,5.01,0.00,28.7,28.0,00.0,37.6,30.5,07.7,0000.0,0000.28,0000.07,0000.01
2022-01-02 21:26:00,,0828.1,4.98,0.00,28.7,28.0,00.0,37.6,30.5,07.6,0000.0,0001.37,0000.07,0000.01
2022-01-02 21:27:00,,0828.1,5.02,0.00,28.7,28.0,00.0,37.6,30.5,07.4,0000.0,0001.36,0000.06,0000.01
2022-01-02 21:28:00,,0828.0,5.00,0.00,28.7,28.1,00.0,37.6,30.5,07.4,0000.0,0001.32,0000.05,0000.01
2022-01-02 21:29:00,,0828.0,4.99,0.00,28.7,28.1,00.0,37.6,30.5,07.5,0000.0,0001.32,0000.05,0000.01
2022-01-02 21:30:00,,0828.1,5.00,0.00,28.7,28.1,00.0,37.7,30.5,07.6,0000.0,0001.32,0000.05,0000.01
2022-01-02 21:31:00,,0828.1,5.00,0.00,28.7,28.1,00.0,37.7,30.5,07.4,0000.0,0001.28,0000.03,0000.01
2022-01-02 21:32:00,,0828.0,5.00,0.00,28.7,28.1,00.0,37.7,30.5,07.6,0000.0,0001.29,0000.03,0000.01
2022-01-02 21:33:00,,0828.1,5.00,0.00,28.7,28.1,00.0,37.7,30.5,07.7,0000.0,0001.29,0000.03,0000.01
2022-01-02 21:34:00,,0828.1,5.02,0.00,28.8,28.1,00.0,37.7,30.5,07.7,0000.0,0001.27,0000.02,0000.01
2022-01-02 21:35:00,,0828.1,5.00,0.00,28.8,28.1,00.0,37.7,30.5,07.7,0000.0,0001.50,0000.03,0000.01
2022-01-02 21:36:00,,0828.2,5.00,0.00,28.8,28.1,00.0,37.7,30.5,07.7,0000.0,0001.54,0000.05,0000.01
2022-01-02 21:37:00,,0828.1,5.00,0.00,28.8,28.1,00.0,37.7,30.6,07.7,0000.0,0000.68,0000.07,0000.01
2022-01-02 21:38:00,,0828.2,5.00,0.00,28.8,28.1,00.0,37.7,30.6,07.7,0000.0,0000.60,0000.09,0000.01
2022-01-02 21:39:00,,0828.2,4.99,0.00,28.8,28.1,00.0,37.7,30.6,07.8,0000.0,0000.61,0000.09,0000.01
2022-01-02 21:40:00,,0828.2,5.01,0.00,28.8,28.2,00.0,37.8,30.6,07.8,0000.0,0000.61,0000.09,0000.01
2022-01-02 21:41:00,,0828.2,4.99,0.00,28.8,28.2,00.0,37.8,30.6,07.8,0000.0,0000.61,0000.09,0000.01
2022-01-02 21:42:00,,0828.2,5.00,0.00,28.8,28.2,00.0,37.8,30.6,07.8,0000.0,0000.61,0000.09,0000.01
2022-01-02 21:43:00,,0828.2,5.01,0.00,28.8,28.2,00.0,37.8,30.6,07.6,0000.0,0000.58,0000.08,0000.01
2022-01-02 21:44:00,,0828.2,4.99,0.00,28.8,28.2,00.0,37.8,30.6,07.6,0000.0,0001.13,0000.08,0000.01
2022-01-02 21:45:00,,0828.2,5.00,0.00,28.9,28.2,00.0,37.8,30.6,07.5,0000.0,0001.14,0000.08,0000.01
2022-01-02 21:46:00,,0828.2,5.00,0.00,28.9,28.2,00.0,37.8,30.7,07.7,0000.0,0000.91,0000.08,0000.01
2022-01-02 21:47:00,,0828.3,5.00,0.00,28.9,28.2,00.0,37.8,30.7,07.6,0000.0,0000.88,0000.06,0000.01
2022-01-02 21:48:00,,0828.2,5.01,0.00,28.9,28.2,00.0,37.8,30.7,07.6,0000.0,0000.76,0000.04,0000.01
2022-01-02 21:49:00,,0828.3,5.00,0.00,28.9,28.2,00.0,37.9,30.7,07.7,0000.0,0000.63,0000.02,0000.01
2022-01-02 21:50:00,,0828.3,4.99,0.00,28.9,28.2,00.0,37.9,30.7,07.8,0000.0,0000.62,0000.02,0000.01
2022-01-02 21:51:00,,0828.3,5.01,0.00,28.9,28.2,00.0,37.9,30.7,07.9,0000.0,0000.62,0000.02,0000.01
2022-01-02 21:52:00,,0828.3,5.01,0.00,28.9,28.2,00.0,37.9,30.7,08.0,0000.0,0000.62,0000.02,0000.01
2022-01-02 21:53:00,,0828.3,4.99,0.00,28.9,28.3,00.0,37.9,30.7,08.1,0000.0,0000.62,0000.02,0000.01
2022-01-02 21:54:00,,0828.3,5.02,0.00,28.9,28.3,00.0,37.9,30.7,08.3,0000.0,0000.61,0000.03,0000.01
2022-01-02 21:55:00,,0828.3,4.98,0.00,28.9,28.3,00.0,37.9,30.7,08.3,0000.0,0000.11,0000.04,0000.01
2022-01-02 21:56:00,,0828.3,5.02,0.00,29.0,28.3,00.0,37.9,30.7,08.3,0000.0,0000.46,0000.04,0000.01
2022-01-02 21:57:00,,0828.4,5.00,0.00,29.0,28.3,00.0,37.9,30.7,08.2,0000.0,0000.68,0000.04,0000.01
2022-01-02 21:58:00,,0828.4,4.99,0.00,29.0,28.3,00.0,37.9,30.7,08.2,0000.0,0000.68,0000.04,0000.01
2022-01-02 21:59:00,,0828.4,5.01,0.00,29.0,28.3,00.0,37.9,30.7,08.3,0000.0,0000.87,0000.04,0000.01
